Change the Weather History Date:

Monday, January 14, 2013

  Actual Average Record
Temperature  
Mean Temperature 10 °F 25 °F  
Max Temperature 18 °F 33 °F 99 °F (2011)
Min Temperature 1 °F 16 °F -10 °F (1949)
Degree Days  
Heating Degree Days 55 40  
Month to date heating degree days 696 569  
Since 1 July heating degree days 3681 3854  
Cooling Degree Days 0 0  
Month to date cooling degree days 0 0  
Year to date cooling degree days 0 0  
Moisture  
Dew Point 6 °F    
Average Humidity 83    
Maximum Humidity 91    
Minimum Humidity 74    
Precipitation  
Precipitation T in 0.02 in 0.26 in (1974)
Month to date precipitation 0.28 0.40  
Year to date precipitation 0.28 0.40  
Sea Level Pressure  
Sea Level Pressure 30.49 in    
Wind  
Wind Speed 2 mph (NE)    
Max Wind Speed 9 mph    
Max Gust Speed 12 mph    
Visibility 8 miles    
Events Snow    
T = Trace of Precipitation, MM = Missing Value Source: NWS Daily Summary

Daily Weather History Graph

Daily Weather History Graph

Search for Another Location

Airport or City:

Trip Planner

Search our weather history database for the weather conditions in past years. The results will help you decide how hot, cold, wet, or windy it might be!

Date:

Astronomy

Jan. 14, 2013 Rise Set
Actual Time 7:25 AM PST 4:35 PM PST
Civil Twilight 6:53 AM PST 5:08 PM PST
Nautical Twilight 6:16 AM PST 5:44 PM PST
Astronomical Twilight 5:41 AM PST 6:19 PM PST
Moon 8:51 AM PST (1/14) 8:38 PM PST (1/14)
Length of Visible Light 10h 15m
Length of Day
9h 09m
Waxing Crescent, 12% of the Moon is Illuminated
Jan 14
Waxing Crescent
Jan 18
First Quarter
Jan 26
Full
Feb 3
Last Quarter
Feb 9
New

Hourly Weather History & Observations

Time (PST) Temp. Windchill Dew Point Humidity Pressure Visibility Wind Dir Wind Speed Gust Speed Precip Events Conditions
12:53 AM 6.1 °F -0.9 °F 1.9 °F 83% 30.50 in 10.0 mi WNW 3.5 mph - N/A   Overcast
1:53 AM 7.0 °F - 3.0 °F 84% 30.50 in 10.0 mi Calm Calm - N/A   Overcast
2:53 AM 7.0 °F - 3.9 °F 87% 30.48 in 10.0 mi Calm Calm - N/A   Overcast
3:53 AM 9.0 °F 2.4 °F 3.9 °F 80% 30.48 in 10.0 mi NNW 3.5 mph - N/A   Overcast
4:53 AM 10.0 °F 1.8 °F 5.0 °F 80% 30.46 in 10.0 mi South 4.6 mph - N/A   Overcast
5:53 AM 9.0 °F 2.4 °F 5.0 °F 84% 30.49 in 10.0 mi NNW 3.5 mph - N/A   Overcast
6:53 AM 6.1 °F - 3.0 °F 87% 30.53 in 10.0 mi Calm Calm - N/A   Mostly Cloudy
7:53 AM 7.0 °F - 3.9 °F 87% 30.53 in 10.0 mi Calm Calm - N/A   Overcast
8:53 AM 9.0 °F - 5.0 °F 84% 30.55 in 7.0 mi Calm Calm - N/A   Overcast
9:53 AM 12.0 °F - 7.0 °F 80% 30.53 in 4.0 mi Calm Calm - 0.00 in   Haze
10:53 AM 14.0 °F - 9.0 °F 80% 30.53 in 2.5 mi Calm Calm - 0.00 in Snow Light Snow
11:13 AM 14.0 °F - 8.6 °F 79% 30.34 in 5.0 mi Calm Calm - 0.00 in Snow Light Snow
11:25 AM 14.0 °F - 8.6 °F 79% 30.34 in 2.5 mi Calm Calm - N/A Snow Light Snow
11:35 AM 12.2 °F - 8.6 °F 85% 30.33 in 3.0 mi Calm Calm - 0.00 in Snow Light Snow
11:53 AM 15.1 °F 9.4 °F 10.0 °F 80% 30.52 in 5.0 mi North 3.5 mph - 0.00 in   Overcast
12:53 PM 15.1 °F - 10.0 °F 80% 30.49 in 10.0 mi Calm Calm - 0.00 in   Overcast
1:53 PM 15.8 °F - 10.4 °F 79% 30.31 in 10.0 mi Calm Calm - N/A   Overcast
2:53 PM 17.1 °F - 10.9 °F 77% 30.51 in 10.0 mi Calm Calm - N/A   Overcast
3:15 PM 17.6 °F - 10.4 °F 73% 30.34 in 10.0 mi Calm Calm - N/A   Overcast
3:45 PM 17.6 °F 8.2 °F 10.4 °F 73% 30.35 in 10.0 mi NE 6.9 mph - N/A   Overcast
3:53 PM 17.1 °F 5.8 °F 10.9 °F 77% 30.52 in 10.0 mi NE 9.2 mph - N/A   Mostly Cloudy
4:05 PM 15.8 °F 7.2 °F 10.4 °F 79% 30.35 in 10.0 mi NE 5.8 mph - N/A   Mostly Cloudy
4:29 PM 14.0 °F 2.9 °F 8.6 °F 79% 30.37 in 10.0 mi ENE 8.1 mph - N/A   Scattered Clouds
4:53 PM 12.9 °F 3.8 °F 7.0 °F 77% 30.53 in 10.0 mi ENE 5.8 mph - N/A   Clear
5:53 PM 9.0 °F 0.6 °F 5.0 °F 84% 30.56 in 10.0 mi SSE 4.6 mph - N/A   Clear
6:53 PM 9.0 °F 0.6 °F 5.0 °F 84% 30.59 in 10.0 mi South 4.6 mph - N/A   Clear
7:53 PM 6.1 °F - 1.9 °F 83% 30.61 in 9.0 mi Calm Calm - N/A   Clear
8:53 PM 3.0 °F - -0.0 °F 87% 30.62 in 10.0 mi Calm Calm - N/A   Clear
9:53 PM 3.9 °F - 1.0 °F 88% 30.63 in 9.0 mi Calm Calm - N/A   Clear
10:53 PM 3.9 °F - -0.0 °F 84% 30.63 in 8.0 mi Calm Calm - N/A   Clear
11:53 PM 1.0 °F -6.7 °F -2.0 °F 87% 30.64 in 8.0 mi North 3.5 mph - N/A   Clear